This demonstration page uses our WeatherBlox Daily Observations layout. Learn more.

Left ArrowRight Arrow

Hourly Observations for April 29, 2018

Temp ( °F °C ) Dew Point ( °F °C ) Humidity (%) Winds ( mph kmh ) Pressure ( in mb ) Visibility ( mi km ) Precip ( " mm )
12:53 am 00:53 Cloudy 50 10 48 8.9 93 93 N 3 6 30.00 1016 10 16 0.00 0.00
1:53 am 01:53 Cloudy 50 10 48 8.9 93 93 Calm 30.00 1016 10 16 0.00 0.00
2:53 am 02:53 Cloudy 49 9.4 48 8.9 97 97 Calm 30.00 1016 10 16 0.00 0.00
3:53 am 03:53 Cloudy 49 9.4 48 8.9 97 97 N 3 6 30.00 1016 10 16 0.00 0.00
4:53 am 04:53 Mostly Cloudy 49 9.4 47 8.3 93 93 Calm 30.00 1016 10 16 0.00 0.00
5:53 am 05:53 Cloudy 48 8.9 47 8.3 96 96 Calm 30.01 1016 10 16 0.00 0.00
6:53 am 06:53 Partly Cloudy 48 8.9 46 7.8 93 93 Calm 30.02 1017 10 16 0.00 0.00
7:53 am 07:53 Sunny 51 10.6 48 8.9 89 89 NNE 3 6 30.04 1017 10 16 0.00 0.00
8:53 am 08:53 Mostly Cloudy 54 12.2 49 9.4 83 83 Calm 30.04 1017 10 16 0.00 0.00
9:13 am 09:13 Mostly Cloudy 54 12.2 48 8.9 80 80 VRB 3 6 30.06 1018 10 16 0.00 0.00
9:41 am 09:41 Partly Cloudy 54 12.2 48 8.9 80 80 SSE 5 7 30.06 1018 10 16 0.00 0.00
9:53 am 09:53 Mostly Sunny 54 12.2 47 8.3 77 77 SSW 6 9 30.05 1018 10 16 0.00 0.00
10:53 am 10:53 Sunny 58 14.4 46 7.8 65 65 Calm 30.05 1018 10 16 0.00 0.00
11:53 am 11:53 Mostly Cloudy 60 15.6 44 6.7 56 56 VRB 3 6 30.04 1017 10 16 0.00 0.00
12:53 pm 12:53 Partly Cloudy 62 16.7 44 6.7 52 52 Calm 30.01 1016 10 16 0.00 0.00
1:53 pm 13:53 Partly Cloudy 65 18.3 43 6.1 45 45 VRB 5 7 30.00 1016 10 16 0.00 0.00
2:53 pm 14:53 Sunny 65 18.3 43 6.1 45 45 VRB 7 11 29.99 1016 10 16 0.00 0.00
3:53 pm 15:53 Mostly Cloudy 66 18.9 42 5.6 42 42 NNW 5 7 29.97 1015 10 16 0.00 0.00
4:53 pm 16:53 Cloudy 65 18.3 42 5.6 43 43 NNW 5 7 29.98 1015 10 16 0.00 0.00
5:53 pm 17:53 Mostly Cloudy 66 18.9 43 6.1 43 43 ENE 6 9 29.96 1015 10 16 0.00 0.00
6:53 pm 18:53 Partly Cloudy 64 17.8 42 5.6 45 45 N 5 7 29.97 1015 10 16 0.00 0.00
7:53 pm 19:53 Partly Cloudy 62 16.7 46 7.8 56 56 NNE 6 9 29.97 1015 10 16 0.00 0.00
8:53 pm 20:53 Mostly Cloudy 60 15.6 46 7.8 60 60 N 6 9 29.99 1016 10 16 0.00 0.00
9:53 pm 21:53 Mostly Cloudy 58 14.4 47 8.3 67 67 N 3 6 30.01 1016 10 16 0.00 0.00
10:53 pm 22:53 Mostly Clear 56 13.3 47 8.3 72 72 N 3 6 30.02 1017 10 16 0.00 0.00
11:53 pm 23:53 Clear 53 11.7 47 8.3 80 80 Calm 30.01 1016 10 16 0.00 0.00

Powered by AerisWeather